• In Hungary
  • List of Countries
  • For 7 days
  • Water Temperature
  • Satellite Maps
  • Weather Map
  • News
  • Weather Widgets
  • user-avatar
    Login

    Hourly Weather Jedlina

    Today, 20 October, Friday

    Time Temperature Precipitation Wind Pressure Humidity
    00:00 +11°C° 0 mm 0 mps 742 mmHg 89%
    01:00 +10°C° 0 mm 0 mps 742 mmHg 91%
    02:00 +10°C° 0 mm 0 mps 742 mmHg 91%
    03:00 +11°C° 0 mm 1 mps 742 mmHg 91%
    04:00 +11°C° 0 mm 1 mps 742 mmHg 91%
    05:00 +11°C° 0 mm 1 mps 742 mmHg 91%
    06:00 +11°C° 0 mm 1 mps 742 mmHg 91%
    07:00 +11°C° 0 mm 1 mps 742 mmHg 87%
    08:00 +13°C° 0 mm 1 mps 742 mmHg 79%
    09:00 +15°C° 0 mm 1 mps 742 mmHg 71%
    10:00 +16°C° 0 mm 1 mps 742 mmHg 63%
    11:00 +19°C° 0 mm 1 mps 742 mmHg 59%
    12:00 +20°C° 0 mm 1 mps 742 mmHg 54%
    13:00 +21°C° 0 mm 1 mps 742 mmHg 50%
    14:00 +20°C° 0 mm 1 mps 742 mmHg 53%
    15:00 +19°C° 0 mm 1 mps 741 mmHg 57%
    16:00 +18°C° 0 mm 1 mps 741 mmHg 60%
    17:00 +16°C° 0 mm 1 mps 741 mmHg 64%
    18:00 +15°C° 0 mm 1 mps 742 mmHg 68%
    19:00 +14°C° 0 mm 1 mps 742 mmHg 73%
    20:00 +13°C° 0 mm 1 mps 742 mmHg 74%
    21:00 +13°C° 0 mm 2 mps 742 mmHg 75%
    22:00 +13°C° 0 mm 2 mps 742 mmHg 77%
    23:00 +12°C° 0 mm 2 mps 742 mmHg 77%

    Tomorrow, 21 October, Saturday

    Time Temperature Precipitation Wind Pressure Humidity
    00:00 +12°C° 0 mm 2 mps 742 mmHg 77%
    01:00 +12°C° 0 mm 2 mps 742 mmHg 77%
    02:00 +12°C° 0 mm 2 mps 742 mmHg 77%
    03:00 +12°C° 0 mm 2 mps 742 mmHg 76%
    04:00 +12°C° 0 mm 2 mps 741 mmHg 76%
    05:00 +12°C° 0 mm 2 mps 741 mmHg 76%
    06:00 +12°C° 0 mm 2 mps 742 mmHg 77%
    07:00 +12°C° 0 mm 2 mps 742 mmHg 77%
    08:00 +13°C° 0.2 mm 2 mps 742 mmHg 75%
    09:00 +14°C° 0.2 mm 2 mps 742 mmHg 73%
    10:00 +14°C° 0.2 mm 3 mps 742 mmHg 71%
    11:00 +16°C° 0 mm 3 mps 741 mmHg 69%
    12:00 +17°C° 0 mm 3 mps 741 mmHg 67%
    13:00 +17°C° 0 mm 3 mps 741 mmHg 65%
    14:00 +17°C° 0 mm 3 mps 741 mmHg 67%
    15:00 +16°C° 0 mm 2 mps 741 mmHg 69%
    16:00 +15°C° 0 mm 2 mps 741 mmHg 71%
    17:00 +15°C° 0 mm 2 mps 741 mmHg 74%
    18:00 +14°C° 0 mm 1 mps 741 mmHg 77%
    19:00 +13°C° 0 mm 1 mps 741 mmHg 80%
    20:00 +12°C° 0 mm 1 mps 741 mmHg 81%
    21:00 +11°C° 0 mm 0 mps 741 mmHg 82%
    22:00 +10°C° 0 mm 0 mps 741 mmHg 83%
    23:00 +10°C° 0 mm 0 mps 741 mmHg 84%

    Day after tomorrow, 22 October, Sunday

    Time Temperature Precipitation Wind Pressure Humidity
    00:00 +11°C° 0 mm 1 mps 741 mmHg 85%
    01:00 +10°C° 0 mm 1 mps 741 mmHg 86%
    02:00 +10°C° 0 mm 1 mps 741 mmHg 87%
    03:00 +10°C° 0 mm 1 mps 741 mmHg 87%
    04:00 +10°C° 0 mm 1 mps 740 mmHg 88%
    05:00 +10°C° 0 mm 1 mps 740 mmHg 88%
    06:00 +10°C° 0 mm 1 mps 740 mmHg 88%
    07:00 +10°C° 0 mm 1 mps 740 mmHg 89%
    08:00 +12°C° 0.2 mm 1 mps 740 mmHg 84%
    09:00 +13°C° 0.2 mm 1 mps 740 mmHg 80%
    10:00 +14°C° 0.2 mm 1 mps 740 mmHg 75%
    11:00 +14°C° 0.8 mm 2 mps 740 mmHg 78%
    12:00 +13°C° 0.8 mm 2 mps 740 mmHg 80%
    13:00 +12°C° 0.8 mm 3 mps 740 mmHg 83%
    14:00 +12°C° 0.4 mm 2 mps 739 mmHg 85%
    15:00 +12°C° 0.4 mm 2 mps 739 mmHg 88%
    16:00 +10°C° 0.4 mm 2 mps 739 mmHg 90%
    17:00 +10°C° 0.4 mm 2 mps 739 mmHg 91%
    18:00 +10°C° 0.4 mm 2 mps 739 mmHg 91%
    19:00 +10°C° 0.4 mm 2 mps 739 mmHg 92%
    20:00 +10°C° 0.4 mm 2 mps 739 mmHg 92%
    21:00 +10°C° 0.4 mm 2 mps 739 mmHg 92%
    22:00 +10°C° 0.4 mm 2 mps 739 mmHg 92%
    23:00 +10°C° 1.1 mm 3 mps 739 mmHg 92%

    23 October, Monday

    Time Temperature Precipitation Wind Pressure Humidity
    00:00 +9°C° 1.1 mm 3 mps 739 mmHg 93%
    01:00 +9°C° 1.1 mm 3 mps 739 mmHg 93%
    02:00 +9°C° 1.9 mm 3 mps 738 mmHg 92%
    03:00 +8°C° 1.9 mm 4 mps 738 mmHg 92%
    04:00 +8°C° 1.9 mm 4 mps 738 mmHg 92%
    05:00 +7°C° 1.6 mm 4 mps 738 mmHg 92%
    06:00 +7°C° 1.6 mm 4 mps 738 mmHg 92%
    07:00 +7°C° 1.6 mm 4 mps 738 mmHg 92%
    08:00 +7°C° 1.3 mm 4 mps 738 mmHg 91%
    09:00 +7°C° 1.3 mm 4 mps 738 mmHg 91%
    10:00 +7°C° 1.3 mm 4 mps 738 mmHg 91%
    11:00 +7°C° 0.8 mm 4 mps 738 mmHg 89%
    12:00 +7°C° 0.8 mm 4 mps 738 mmHg 88%
    13:00 +7°C° 0.8 mm 5 mps 738 mmHg 87%
    14:00 +7°C° 0.8 mm 4 mps 738 mmHg 88%
    15:00 +7°C° 0.8 mm 4 mps 738 mmHg 89%
    16:00 +7°C° 0.8 mm 4 mps 738 mmHg 90%
    17:00 +7°C° 0.7 mm 4 mps 738 mmHg 90%
    18:00 +7°C° 0.7 mm 4 mps 738 mmHg 91%
    19:00 +7°C° 0.7 mm 4 mps 739 mmHg 92%
    20:00 +7°C° 0.7 mm 4 mps 739 mmHg 92%
    21:00 +7°C° 0.7 mm 4 mps 739 mmHg 92%
    22:00 +7°C° 0.7 mm 4 mps 739 mmHg 92%
    23:00 +7°C° 0.6 mm 4 mps 739 mmHg 92%

    24 October, Tuesday

    Time Temperature Precipitation Wind Pressure Humidity
    00:00 +7°C° 0.6 mm 4 mps 739 mmHg 92%
    01:00 +7°C° 0.6 mm 4 mps 740 mmHg 93%
    02:00 +7°C° 0.6 mm 4 mps 740 mmHg 92%
    03:00 +7°C° 0.6 mm 4 mps 740 mmHg 92%
    04:00 +7°C° 0.6 mm 4 mps 741 mmHg 92%
    05:00 +7°C° 0.3 mm 4 mps 741 mmHg 92%
    06:00 +7°C° 0.3 mm 4 mps 742 mmHg 92%
    07:00 +7°C° 0.3 mm 4 mps 742 mmHg 91%
    08:00 +7°C° 0.1 mm 4 mps 743 mmHg 89%
    09:00 +8°C° 0.1 mm 4 mps 743 mmHg 87%
    10:00 +8°C° 0.1 mm 4 mps 744 mmHg 86%
    11:00 +8°C° 0.1 mm 4 mps 744 mmHg 85%
    12:00 +8°C° 0.1 mm 4 mps 745 mmHg 84%
    13:00 +8°C° 0.1 mm 4 mps 745 mmHg 83%
    14:00 +9°C° 0.1 mm 3 mps 745 mmHg 84%
    15:00 +9°C° 0.1 mm 3 mps 746 mmHg 85%
    16:00 +9°C° 0.1 mm 3 mps 746 mmHg 86%
    17:00 +8°C° 0 mm 3 mps 747 mmHg 86%
    18:00 +8°C° 0 mm 3 mps 747 mmHg 87%
    19:00 +8°C° 0 mm 3 mps 748 mmHg 88%
    20:00 +7°C° 0 mm 2 mps 748 mmHg 89%
    21:00 +7°C° 0 mm 2 mps 748 mmHg 90%
    22:00 +7°C° 0 mm 2 mps 749 mmHg 91%
    23:00 +6°C° 0 mm 2 mps 749 mmHg 91%

    25 October, Wednesday

    Time Temperature Precipitation Wind Pressure Humidity
    00:00 +6°C° 0 mm 2 mps 749 mmHg 92%
    01:00 +5°C° 0 mm 2 mps 749 mmHg 93%
    02:00 +5°C° 0 mm 2 mps 749 mmHg 93%
    03:00 +5°C° 0 mm 2 mps 749 mmHg 93%
    04:00 +5°C° 0 mm 1 mps 750 mmHg 93%
    05:00 +5°C° 0 mm 1 mps 750 mmHg 93%
    06:00 +5°C° 0 mm 1 mps 750 mmHg 93%
    07:00 +5°C° 0 mm 1 mps 750 mmHg 93%
    08:00 +5°C° 0 mm 2 mps 750 mmHg 89%
    09:00 +6°C° 0 mm 2 mps 750 mmHg 84%
    10:00 +7°C° 0 mm 2 mps 750 mmHg 80%
    11:00 +8°C° 0 mm 2 mps 750 mmHg 77%
    12:00 +9°C° 0 mm 2 mps 750 mmHg 75%
    13:00 +10°C° 0 mm 2 mps 750 mmHg 73%
    14:00 +9°C° 0 mm 2 mps 750 mmHg 75%
    15:00 +9°C° 0 mm 2 mps 750 mmHg 78%
    16:00 +8°C° 0 mm 2 mps 750 mmHg 80%
    17:00 +8°C° 0 mm 2 mps 750 mmHg 83%
    18:00 +7°C° 0 mm 2 mps 750 mmHg 86%
    19:00 +6°C° 0 mm 2 mps 751 mmHg 89%
    20:00 +6°C° 0 mm 2 mps 751 mmHg 89%
    21:00 +5°C° 0 mm 2 mps 751 mmHg 89%
    22:00 +5°C° 0 mm 2 mps 751 mmHg 90%
    23:00 +5°C° 0 mm 2 mps 751 mmHg 90%
    Show more